Regional Weather Roundup
Issued by NWS

Home | Current Version | Previous Version | Graphics & Text | Print | Product List | Glossary On
Versions: 1 2 3 4 5 6 7 8 9 10 11 12 13 14 15 16 17 18 19 20 21 22 23 24 25 26 27 28 29 30 31 32 33 34 35 36 37 38 39 40 41 42 43 44 45 46 47 48 49 50
000
ASUS45 KCYS 221610
RWRWY

WYOMING REGIONAL WEATHER ROUNDUP
NATIONAL WEATHER SERVICE CHEYENNE WY
1000 AM MDT TUE AUG 22 2017

NOTE:  "FAIR" INDICATES FEW OR NO CLOUDS BELOW 12,000 FEET
WITH NO SIGNIFICANT WEATHER AND/OR OBSTRUCTIONS TO VISIBILITY.

WYZ001-221700-
YELLOWSTONE NATIONAL PARK

CITY           SKY/WX    TMP DP  RH WIND       PRES   REMARKS
LK YELLOWSTONE   N/A     54  46  74 E5        30.47S
W YELLOWSTONE  NOT AVBL

$$
WYZ002>013-054>058-071-098>099-221700-
NORTHERN WYOMING

CITY           SKY/WX    TMP DP  RH WIND       PRES   REMARKS
JACKSON        FAIR      57  32  38 CALM      30.41S
CODY           FAIR      70  37  29 W3        30.28F
GREYBULL       FAIR      66  36  32 CALM      30.22F
WORLAND        FAIR      65  38  36 SW3       30.23F
SHERIDAN       FAIR      70  41  34 E3        30.22S
BUFFALO        FAIR      74  34  23 CALM      30.27S
GILLETTE       FAIR      73  43  33 S15G23    30.24S
HULETT         FAIR      72  39  30 SW14      30.27R
NEWCASTLE      FAIR      70  37  30 SE10      30.29S

$$
WYZ014>020-022>026-101>103-221700-
CENTRAL WYOMING

CITY           SKY/WX    TMP DP  RH WIND       PRES   REMARKS
BIG PINEY      FAIR      63  27  25 N3        30.42S
PINEDALE       FAIR      63  32  31 CALM      30.42S
DUBOIS         FAIR      61  32  33 NW6       30.40F
LANDER           N/A    N/A N/A N/A MISG      30.30F
RIVERTON       FAIR      68  36  30 N6        30.31S
CASPER         FAIR      67  42  40 CALM      30.29F
DOUGLAS        FAIR      68  47  46 S7        30.29F

$$
WYZ021-027>030-104>119-221700-
SOUTHERN WYOMING

CITY           SKY/WX    TMP DP  RH WIND       PRES   REMARKS
EVANSTON       CLOUDY    67  38  34 SW3       30.41R
KEMMERER         N/A     68  30  24 CALM      30.42R
FORT BRIDGER   FAIR      71  33  24 N3        30.43S
ROCK SPRINGS   FAIR      68  36  30 VRB5      30.39S
RAWLINS        NOT AVBL
SARATOGA       FAIR      68  43  40 NW5       30.41R
LARAMIE        FAIR      68  45  43 S10       30.39S
CHEYENNE       CLOUDY    61  55  81 S15G21    30.38R
TORRINGTON     FAIR      70  55  59 SE9       30.28F
PINE BLUFFS    PTSUNNY   68  52  56 S14       30.35S

$$




USA.gov is the U.S. government's official web portal to all federal, state and local government web resources and services.